Regional Weather Roundup
Issued by NWS

Home | Current Version | Previous Version | Graphics & Text | Print | Product List | Glossary On
Versions: 1 2 3 4 5 6 7 8 9 10 11 12 13 14 15 16 17 18 19 20 21 22 23 24 25 26 27 28 29 30 31 32 33 34 35 36 37 38 39 40 41 42 43 44 45 46 47 48 49 50
000
ASUS45 KABQ 190310
RWRNM
WEATHER ROUNDUP FOR NEW MEXICO
NATIONAL WEATHER SERVICE ALBUQUERQUE NM
900 PM MDT THU SEP 18 2014

NOTE: "FAIR" MEANS FEW OR NO CLOUDS BELOW 12,000 FEET AGL WITH NO
       SIGNIFICANT WEATHER OR OBSTRUCTIONS TO VISION.

      THIS PRODUCT IS RELEASED AS TWO VERSIONS.  ONE VERSION NEAR
      THE TOP OF THE HOUR CONTAINING PRELIMINARY DATA FROM ALBUQUERQUE
      AND OTHER STATIONS.  A FINAL VERSION WITH ADDITIONAL DATA IS
      ISSUED ABOUT 10 MINUTES AFTER THE HOUR.

NMZ501-503-504-510>518-190400-
NORTHWEST PLATEAU/NORTHCENTRAL MOUNTAINS

CITY           SKY/WX    TMP DP  RH WIND       PRES   REMARKS
FARMINGTON     CLEAR     70  37  29 N6        29.97R
LOS ALAMOS     CLEAR     65  50  57 S12G23    30.17R
SANTA FE       CLEAR     67  52  58 S12       30.10R
TAOS           CLEAR     64  43  45 SE21      30.15R
ANGEL FIRE     FAIR      56  45  66 E3        30.28R

$$
NMZ402-403-502-505>509-190400-
WESTCENTRAL MOUNTAINS/SOUTHWEST MOUNTAINS

CITY           SKY/WX    TMP DP  RH WIND       PRES   REMARKS
GALLUP         CLEAR     64  50  60 S6        30.08R
GRANTS         CLEAR     59  41  51 SE3       30.11R
SILVER CITY    PTCLDY    63  61  94 SW5       30.06R

$$
NMZ407-409-411-412-190400-
SOUTHERN DESERTS

CITY           SKY/WX    TMP DP  RH WIND       PRES   REMARKS
LORDSBURG      FAIR      64  63  94 MISG      29.98R
DEMING         CLOUDY    65  64  97 E6        29.98R
LAS CRUCES     CLOUDY    65  64  97 CALM      30.00R
HOLLOMAN AFB   CLOUDY    67  66  97 CALM      29.98R
ALAMOGORDO     CLOUDY    66  64  94 W5        30.00R
T OR C         MOCLDY    67  63  87 CALM      30.00R

$$
NMZ519>523-190400-
CENTRAL VALLEYS/CENTRAL HIGHLANDS

CITY           SKY/WX    TMP DP  RH WIND       PRES   REMARKS
ALBUQUERQUE    MOCLDY    69  57  65 SE9       30.05R
DOUBLE EAGLE   PTCLDY    66  55  68 S10       30.08R
MORIARTY ARPT  CLOUDY    63  57  80 S5        30.13R
CLINES CORNERS LGT RAIN  61  56  83 SE10      30.17R
BELEN          FAIR      66  60  81 S8        30.04R
SOCORRO        MOCLDY    66  63  87 SE3       30.02R

$$
NMZ524>526-539-540-190400-
SOUTHCENTRAL MOUNTAINS

CITY           SKY/WX    TMP DP  RH WIND       PRES   REMARKS
RUIDOSO        CLOUDY    57  55  94 CALM      30.18R

$$
NMZ527>531-190400-
NORTHEAST HIGHLANDS/NORTHEAST PLAINS

CITY           SKY/WX    TMP DP  RH WIND       PRES   REMARKS
LAS VEGAS      MOCLDY    58  55  90 S6        30.18R
RATON          CLEAR     63  53  70 S3        30.15R
CLAYTON        MOCLDY    62  59  90 S8        30.09R

$$
NMZ532>537-190400-
EASTCENTRAL PLAINS

CITY           SKY/WX    TMP DP  RH WIND       PRES   REMARKS
TUCUMCARI      PTCLDY    66  60  81 SE6       30.04R
CANNON AFB     CLOUDY    66  66 100 E9        30.06R
CLOVIS AIRPORT   N/A     64  63  94 SE9       30.08R

$$
NMZ028-029-538-190400-
SOUTHEAST PLAINS

CITY           SKY/WX    TMP DP  RH WIND       PRES   REMARKS
ROSWELL        CLOUDY    69  65  86 SW6       29.99R
CARLSBAD       RAIN      69  32  25 CALM      29.97S
HOBBS          CLOUDY    68  68 100 E13       30.02R


$$



USA.gov is the U.S. government's official web portal to all federal, state and local government web resources and services.